QPF
0.00 0.00 0.00 0.00 0.00 0.00 0.00 0.00 0.00 0.00 0.00 0.00 0.00 0.01 0.01 0.00 0.00 0.00 0.01 0.00 0.00 0.00 0.01 0.01 0.01 0.01 0.01 0.01 0.01 0.01 0.00 0.00 0.00 0.00 0.00 0.00 0.01 0.01 0.01 0.02 0.03 0.03 0.03 0.02
0.00 0.00 0.00 0.00 0.00 0.00 0.00 0.00 0.00 0.00 0.00 0.00 0.00 0.01 0.01 0.00 0.00 0.00 0.00 0.00 0.00 0.00 0.00 0.00 0.00 0.00 0.00 0.00 0.00 0.00 0.00 0.00 0.00 0.00 0.00 0.00 0.01 0.01 0.01 0.02 0.03 0.04 0.03 0.02
0.00 0.00 0.00 0.00 0.00 0.00 0.00 0.00 0.00 0.00 0.01 0.01 0.00 0.00 0.00 0.01 0.01 0.01 0.01 0.01 0.01 0.00 0.00 0.00 0.00 0.00 0.00 0.00 0.00 0.00 0.00 0.00 0.00 0.00 0.00 0.00 0.00 0.01 0.02 0.03 0.04 0.04 0.03 0.03
0.00 0.00 0.00 0.00 0.00 0.00 0.00 0.00 0.00 0.00 0.00 0.01 0.01 0.01 0.01 0.01 0.01 0.01 0.01 0.00 0.00 0.01 0.01 0.01 0.01 0.00 0.00 0.00 0.00 0.00 0.00 0.00 0.00 0.00 0.00 0.00 0.00 0.01 0.02 0.03 0.04 0.05 0.04 0.03
0.00 0.00 0.00 0.00 0.00 0.00 0.00 0.00 0.00 0.00 0.00 0.01 0.01 0.02 0.02 0.01 0.01 0.01 0.00 0.00 0.00 0.00 0.00 0.01 0.01 0.01 0.00 0.00 0.00 0.00 0.00 0.00 0.00 0.00 0.00 0.00 0.00 0.00 0.01 0.02 0.04 0.05 0.04 0.03
0.00 0.00 0.00 0.00 0.00 0.00 0.00 0.01 0.00 0.00 0.00 0.01 0.01 0.02 0.02 0.01 0.01 0.01 0.01 0.00 0.00 0.00 0.00 0.01 0.01 0.01 0.01 0.01 0.00 0.01 0.00 0.01 0.01 0.01 0.01 0.01 0.01 0.01 0.01 0.02 0.03 0.03 0.02 0.02
0.00 0.00 0.00 0.00 0.00 0.00 0.01 0.01 0.00 0.00 0.00 0.00 0.01 0.02 0.01 0.01 0.00 0.00 0.00 0.00 0.00 0.00 0.00 0.01 0.01 0.02 0.02 0.01 0.01 0.00 0.00 0.00 0.01 0.01 0.01 0.02 0.02 0.03 0.02 0.02 0.02 0.02 0.02 0.02
0.00 0.00 0.00 0.00 0.00 0.01 0.01 0.00 0.00 0.00 0.00 0.00 0.01 0.01 0.01 0.00 0.00 0.00 0.00 0.00 0.00 0.00 0.01 0.01 0.02 0.02 0.02 0.02 0.01 0.00 0.00 0.00 0.00 0.01 0.01 0.01 0.02 0.02 0.02 0.02 0.02 0.02 0.03 0.04
0.00 0.00 0.00 0.00 0.00 0.00 0.00 0.00 0.00 0.00 0.00 0.00 0.01 0.00 0.01 0.01 0.00 0.00 0.00 0.00 0.01 0.01 0.01 0.01 0.01 0.02 0.02 0.01 0.01 0.00 0.00 0.00 0.01 0.01 0.01 0.01 0.01 0.01 0.01 0.01 0.01 0.02 0.03 0.04
0.00 0.00 0.00 0.00 0.00 0.00 0.00 0.00 0.00 0.00 0.00 0.00 0.01 0.01 0.01 0.01 0.01 0.01 0.00 0.01 0.01 0.01 0.01 0.02 0.02 0.02 0.02 0.01 0.01 0.00 0.00 0.00 0.01 0.01 0.01 0.01 0.01 0.01 0.01 0.01 0.01 0.01 0.01 0.03
0.00 0.00 0.00 0.00 0.00 0.00 0.00 0.00 0.00 0.00 0.00 0.00 0.00 0.00 0.00 0.01 0.01 0.01 0.01 0.00 0.00 0.01 0.01 0.03 0.02 0.02 0.02 0.01 0.01 0.00 0.00 0.01 0.01 0.01 0.01 0.01 0.02 0.02 0.02 0.02 0.02 0.02 0.02 0.02
0.00 0.00 0.00 0.00 0.00 0.00 0.00 0.00 0.00 0.00 0.00 0.00 0.00 0.01 0.01 0.00 0.00 0.00 0.01 0.01 0.01 0.01 0.02 0.03 0.03 0.02 0.02 0.02 0.01 0.01 0.01 0.01 0.01 0.01 0.01 0.02 0.02 0.02 0.02 0.02 0.02 0.02 0.02 0.02
0.01 0.01 0.01 0.00 0.00 0.00 0.01 0.01 0.01 0.01 0.01 0.01 0.01 0.01 0.01 0.01 0.01 0.01 0.01 0.01 0.02 0.03 0.03 0.04 0.03 0.03 0.03 0.03 0.03 0.02 0.02 0.02 0.03 0.02 0.02 0.02 0.02 0.02 0.01 0.02 0.02 0.02 0.02 0.02
0.01 0.01 0.01 0.01 0.00 0.00 0.01 0.01 0.01 0.01 0.01 0.01 0.01 0.01 0.01 0.01 0.01 0.01 0.01 0.01 0.03 0.06 0.06 0.06 0.04 0.03 0.03 0.03 0.03 0.05 0.04 0.03 0.03 0.03 0.03 0.03 0.02 0.02 0.01 0.01 0.01 0.01 0.01 0.02
0.02 0.01 0.01 0.01 0.00 0.00 0.01 0.01 0.01 0.01 0.00 0.00 0.00 0.00 0.00 0.01 0.00 0.00 0.01 0.02 0.03 0.04 0.06 0.07 0.05 0.04 0.04 0.05 0.05 0.05 0.06 0.04 0.04 0.04 0.04 0.03 0.02 0.02 0.01 0.01 0.01 0.01 0.01 0.01
0.02 0.02 0.02 0.02 0.02 0.01 0.01 0.01 0.01 0.01 0.00 0.00 0.00 0.00 0.00 0.00 0.00 0.01 0.01 0.02 0.04 0.05 0.06 0.06 0.06 0.06 0.06 0.07 0.07 0.06 0.04 0.04 0.05 0.04 0.03 0.03 0.02 0.02 0.01 0.01 0.01 0.01 0.01 0.01
0.02 0.02 0.02 0.02 0.02 0.03 0.03 0.02 0.01 0.01 0.01 0.00 0.00 0.00 0.00 0.00 0.01 0.01 0.01 0.02 0.03 0.06 0.07 0.06 0.05 0.05 0.06 0.06 0.06 0.05 0.04 0.04 0.04 0.04 0.02 0.02 0.02 0.02 0.01 0.02 0.02 0.02 0.01 0.01
0.02 0.02 0.02 0.02 0.02 0.03 0.04 0.03 0.02 0.02 0.02 0.01 0.01 0.01 0.01 0.01 0.01 0.01 0.02 0.02 0.02 0.03 0.06 0.08 0.06 0.04 0.04 0.04 0.04 0.03 0.04 0.04 0.03 0.03 0.02 0.02 0.02 0.02 0.02 0.02 0.02 0.02 0.02 0.02
0.03 0.02 0.02 0.01 0.02 0.02 0.02 0.02 0.01 0.01 0.02 0.01 0.01 0.01 0.01 0.01 0.01 0.02 0.02 0.03 0.03 0.03 0.03 0.05 0.07 0.04 0.03 0.03 0.03 0.02 0.02 0.03 0.03 0.03 0.02 0.02 0.02 0.02 0.02 0.02 0.02 0.02 0.02 0.01
0.03 0.03 0.02 0.01 0.01 0.02 0.01 0.01 0.01 0.01 0.01 0.01 0.01 0.01 0.01 0.01 0.02 0.02 0.03 0.04 0.05 0.04 0.03 0.02 0.03 0.02 0.02 0.02 0.02 0.02 0.02 0.02 0.03 0.02 0.02 0.02 0.02 0.03 0.03 0.03 0.03 0.02 0.02 0.02
0.03 0.02 0.02 0.01 0.01 0.01 0.01 0.01 0.01 0.01 0.01 0.01 0.01 0.02 0.02 0.02 0.03 0.03 0.03 0.04 0.05 0.04 0.03 0.03 0.02 0.02 0.02 0.01 0.02 0.02 0.02 0.02 0.02 0.02 0.02 0.02 0.03 0.03 0.03 0.03 0.03 0.03 0.03 0.04
0.04 0.02 0.02 0.01 0.01 0.01 0.01 0.01 0.01 0.01 0.01 0.01 0.01 0.02 0.02 0.02 0.02 0.03 0.02 0.03 0.05 0.06 0.05 0.04 0.03 0.03 0.03 0.02 0.02 0.02 0.01 0.01 0.01 0.01 0.02 0.02 0.02 0.02 0.02 0.02 0.02 0.02 0.03 0.03
0.05 0.03 0.02 0.01 0.01 0.01 0.01 0.01 0.02 0.02 0.02 0.02 0.02 0.02 0.02 0.02 0.02 0.02 0.02 0.01 0.02 0.05 0.05 0.05 0.04 0.04 0.03 0.02 0.01 0.01 0.01 0.01 0.02 0.02 0.02 0.02 0.02 0.01 0.01 0.01 0.01 0.01 0.01 0.02
0.06 0.04 0.02 0.01 0.01 0.01 0.02 0.02 0.02 0.02 0.03 0.02 0.02 0.02 0.02 0.02 0.01 0.01 0.01 0.02 0.02 0.04 0.06 0.05 0.04 0.04 0.03 0.01 0.01 0.01 0.01 0.01 0.02 0.02 0.02 0.02 0.01 0.01 0.01 0.01 0.01 0.01 0.01 0.01
0.07 0.06 0.04 0.03 0.02 0.02 0.02 0.04 0.04 0.02 0.02 0.02 0.03 0.02 0.02 0.02 0.02 0.02 0.02 0.02 0.03 0.04 0.05 0.06 0.06 0.04 0.03 0.02 0.01 0.01 0.01 0.01 0.02 0.02 0.01 0.02 0.02 0.02 0.01 0.01 0.01 0.01 0.01 0.01
0.09 0.07 0.06 0.04 0.03 0.02 0.03 0.06 0.06 0.05 0.04 0.03 0.03 0.03 0.03 0.03 0.03 0.04 0.04 0.04 0.04 0.07 0.09 0.09 0.07 0.05 0.03 0.02 0.01 0.01 0.02 0.03 0.04 0.03 0.02 0.02 0.02 0.02 0.02 0.01 0.01 0.01 0.01 0.01
0.10 0.08 0.07 0.06 0.05 0.05 0.06 0.09 0.10 0.09 0.07 0.05 0.04 0.05 0.06 0.06 0.06 0.06 0.06 0.06 0.06 0.08 0.09 0.09 0.07 0.05 0.04 0.02 0.02 0.01 0.02 0.03 0.04 0.04 0.03 0.02 0.01 0.01 0.01 0.02 0.02 0.02 0.01 0.01
MSLP
1012.23 1011.48 1010.81 1010.23 1009.75 1009.32 1008.89 1008.39 1007.79 1007.06 1006.20 1005.26 1004.31 1003.45 1002.76 1002.31 1002.16 1002.30 1002.71 1003.35 1004.14 1005.02 1005.92 1006.79 1007.62 1008.40 1009.15 1009.88 1010.61 1011.35 1012.10 1012.86 1013.61 1014.33 1015.02 1015.66 1016.26 1016.82 1017.35 1017.87 1018.36 1018.83 1019.26 1019.64
1013.01 1012.20 1011.40 1010.64 1009.93 1009.26 1008.60 1007.92 1007.19 1006.38 1005.51 1004.62 1003.75 1002.98 1002.38 1002.01 1001.90 1002.05 1002.46 1003.09 1003.86 1004.74 1005.65 1006.57 1007.46 1008.32 1009.15 1009.97 1010.77 1011.57 1012.37 1013.14 1013.90 1014.62 1015.30 1015.93 1016.53 1017.10 1017.64 1018.17 1018.68 1019.16 1019.61 1020.00
1013.50 1012.67 1011.80 1010.93 1010.07 1009.24 1008.42 1007.61 1006.78 1005.92 1005.04 1004.17 1003.35 1002.62 1002.05 1001.69 1001.56 1001.68 1002.04 1002.61 1003.35 1004.21 1005.14 1006.12 1007.10 1008.07 1009.03 1009.96 1010.87 1011.76 1012.61 1013.42 1014.19 1014.90 1015.56 1016.18 1016.76 1017.31 1017.85 1018.37 1018.88 1019.37 1019.83 1020.23
1013.65 1012.86 1011.98 1011.07 1010.16 1009.25 1008.37 1007.49 1006.62 1005.75 1004.87 1004.01 1003.19 1002.47 1001.87 1001.45 1001.25 1001.27 1001.52 1002.00 1002.67 1003.51 1004.46 1005.49 1006.58 1007.68 1008.78 1009.85 1010.89 1011.87 1012.80 1013.65 1014.42 1015.13 1015.76 1016.35 1016.90 1017.42 1017.93 1018.44 1018.94 1019.43 1019.89 1020.29
1013.48 1012.75 1011.93 1011.06 1010.18 1009.29 1008.43 1007.58 1006.73 1005.88 1005.03 1004.18 1003.35 1002.59 1001.92 1001.39 1001.05 1000.92 1001.03 1001.38 1001.95 1002.74 1003.69 1004.78 1005.96 1007.19 1008.43 1009.65 1010.82 1011.91 1012.90 1013.79 1014.57 1015.26 1015.86 1016.41 1016.91 1017.40 1017.89 1018.38 1018.87 1019.35 1019.81 1020.22
1013.05 1012.40 1011.68 1010.91 1010.12 1009.34 1008.58 1007.83 1007.07 1006.30 1005.50 1004.67 1003.83 1003.01 1002.24 1001.57 1001.06 1000.75 1000.67 1000.86 1001.31 1002.02 1002.96 1004.08 1005.33 1006.67 1008.04 1009.39 1010.66 1011.84 1012.89 1013.81 1014.59 1015.26 1015.83 1016.34 1016.81 1017.27 1017.74 1018.22 1018.71 1019.20 1019.66 1020.08
1012.40 1011.84 1011.24 1010.61 1009.98 1009.37 1008.78 1008.18 1007.58 1006.93 1006.21 1005.43 1004.59 1003.70 1002.82 1002.01 1001.31 1000.80 1000.52 1000.53 1000.84 1001.45 1002.34 1003.46 1004.76 1006.18 1007.64 1009.07 1010.43 1011.67 1012.76 1013.69 1014.48 1015.13 1015.67 1016.16 1016.61 1017.06 1017.52 1018.01 1018.52 1019.03 1019.52 1019.96
1011.60 1011.13 1010.64 1010.18 1009.74 1009.34 1008.96 1008.57 1008.15 1007.66 1007.06 1006.35 1005.51 1004.58 1003.61 1002.65 1001.77 1001.07 1000.60 1000.43 1000.59 1001.08 1001.90 1002.99 1004.30 1005.74 1007.25 1008.74 1010.15 1011.42 1012.53 1013.46 1014.23 1014.87 1015.40 1015.88 1016.33 1016.79 1017.29 1017.81 1018.36 1018.91 1019.44 1019.91
1010.69 1010.29 1009.93 1009.62 1009.39 1009.21 1009.06 1008.90 1008.69 1008.37 1007.91 1007.28 1006.48 1005.52 1004.47 1003.39 1002.37 1001.49 1000.85 1000.51 1000.53 1000.91 1001.64 1002.68 1003.96 1005.40 1006.91 1008.42 1009.83 1011.11 1012.21 1013.14 1013.90 1014.52 1015.06 1015.54 1016.01 1016.51 1017.05 1017.64 1018.25 1018.86 1019.44 1019.95
1009.70 1009.35 1009.10 1008.96 1008.91 1008.95 1009.02 1009.08 1009.07 1008.93 1008.61 1008.08 1007.32 1006.36 1005.26 1004.10 1002.97 1001.97 1001.19 1000.72 1000.61 1000.89 1001.54 1002.51 1003.75 1005.15 1006.65 1008.13 1009.52 1010.78 1011.86 1012.77 1013.51 1014.13 1014.67 1015.17 1015.69 1016.24 1016.84 1017.49 1018.17 1018.85 1019.49 1020.06
1008.62 1008.33 1008.18 1008.17 1008.30 1008.53 1008.80 1009.05 1009.22 1009.24 1009.04 1008.59 1007.89 1006.95 1005.84 1004.63 1003.44 1002.36 1001.49 1000.94 1000.75 1000.95 1001.53 1002.45 1003.63 1005.00 1006.45 1007.89 1009.25 1010.47 1011.53 1012.41 1013.13 1013.75 1014.29 1014.82 1015.37 1015.97 1016.63 1017.35 1018.10 1018.85 1019.54 1020.14
1007.44 1007.21 1007.15 1007.27 1007.55 1007.93 1008.36 1008.77 1009.07 1009.20 1009.10 1008.73 1008.07 1007.16 1006.06 1004.85 1003.64 1002.53 1001.64 1001.05 1000.83 1001.00 1001.54 1002.42 1003.57 1004.90 1006.31 1007.72 1009.04 1010.22 1011.24 1012.09 1012.80 1013.40 1013.95 1014.49 1015.06 1015.70 1016.41 1017.18 1017.98 1018.77 1019.50 1020.13
1006.13 1005.98 1006.03 1006.27 1006.66 1007.17 1007.71 1008.22 1008.61 1008.81 1008.76 1008.43 1007.81 1006.93 1005.86 1004.68 1003.50 1002.42 1001.55 1000.99 1000.78 1000.96 1001.51 1002.39 1003.52 1004.83 1006.22 1007.60 1008.89 1010.04 1011.02 1011.85 1012.53 1013.12 1013.66 1014.20 1014.78 1015.43 1016.15 1016.93 1017.74 1018.55 1019.30 1019.93
1004.68 1004.64 1004.80 1005.15 1005.65 1006.24 1006.85 1007.41 1007.84 1008.06 1008.03 1007.72 1007.12 1006.27 1005.24 1004.11 1002.99 1001.99 1001.19 1000.69 1000.55 1000.79 1001.38 1002.29 1003.44 1004.75 1006.14 1007.50 1008.77 1009.90 1010.86 1011.67 1012.33 1012.90 1013.42 1013.94 1014.50 1015.13 1015.83 1016.59 1017.39 1018.18 1018.91 1019.53
1003.10 1003.18 1003.46 1003.92 1004.50 1005.15 1005.80 1006.37 1006.79 1007.00 1006.96 1006.64 1006.04 1005.22 1004.24 1003.19 1002.16 1001.25 1000.57 1000.18 1000.14 1000.46 1001.13 1002.09 1003.28 1004.62 1006.02 1007.38 1008.65 1009.77 1010.73 1011.52 1012.17 1012.71 1013.21 1013.70 1014.22 1014.80 1015.46 1016.17 1016.92 1017.65 1018.34 1018.93
1001.40 1001.63 1002.04 1002.59 1003.25 1003.93 1004.58 1005.13 1005.51 1005.68 1005.59 1005.25 1004.66 1003.88 1002.96 1001.99 1001.08 1000.30 999.74 999.49 999.57 1000.00 1000.76 1001.79 1003.03 1004.41 1005.83 1007.20 1008.48 1009.60 1010.56 1011.34 1011.99 1012.52 1012.99 1013.44 1013.92 1014.45 1015.04 1015.68 1016.36 1017.03 1017.65 1018.20
999.65 1000.02 1000.55 1001.19 1001.89 1002.59 1003.21 1003.72 1004.04 1004.15 1004.02 1003.66 1003.08 1002.33 1001.49 1000.63 999.84 999.21 998.81 998.69 998.91 999.45 1000.29 1001.40 1002.69 1004.09 1005.53 1006.92 1008.21 1009.34 1010.30 1011.09 1011.74 1012.27 1012.72 1013.15 1013.59 1014.06 1014.59 1015.16 1015.75 1016.35 1016.91 1017.40
997.91 998.41 999.03 999.73 1000.46 1001.14 1001.73 1002.18 1002.44 1002.49 1002.32 1001.95 1001.39 1000.71 999.96 999.22 998.58 998.10 997.85 997.88 998.22 998.86 999.78 1000.94 1002.27 1003.69 1005.13 1006.53 1007.81 1008.95 1009.92 1010.72 1011.38 1011.92 1012.37 1012.79 1013.20 1013.64 1014.11 1014.62 1015.15 1015.68 1016.17 1016.62
996.27 996.86 997.54 998.27 998.99 999.63 1000.17 1000.55 1000.75 1000.76 1000.57 1000.20 999.70 999.10 998.47 997.87 997.38 997.06 996.97 997.13 997.59 998.31 999.29 1000.48 1001.81 1003.22 1004.65 1006.02 1007.29 1008.42 1009.40 1010.21 1010.88 1011.44 1011.92 1012.34 1012.75 1013.17 1013.62 1014.08 1014.57 1015.04 1015.49 1015.89
994.80 995.43 996.13 996.84 997.51 998.10 998.56 998.88 999.03 999.00 998.82 998.50 998.07 997.58 997.10 996.66 996.34 996.19 996.25 996.54 997.09 997.88 998.89 1000.07 1001.38 1002.75 1004.13 1005.46 1006.69 1007.80 1008.76 1009.58 1010.27 1010.85 1011.36 1011.81 1012.24 1012.67 1013.11 1013.56 1014.02 1014.47 1014.89 1015.26
993.58 994.20 994.85 995.50 996.09 996.59 996.97 997.22 997.33 997.30 997.14 996.89 996.57 996.23 995.91 995.65 995.51 995.53 995.74 996.15 996.78 997.61 998.63 999.79 1001.04 1002.35 1003.66 1004.91 1006.09 1007.15 1008.08 1008.90 1009.59 1010.20 1010.73 1011.21 1011.68 1012.13 1012.59 1013.05 1013.50 1013.94 1014.35 1014.71
992.63 993.17 993.73 994.27 994.75 995.15 995.45 995.63 995.71 995.70 995.60 995.44 995.25 995.08 994.94 994.88 994.93 995.12 995.47 996.00 996.70 997.56 998.57 999.68 1000.87 1002.10 1003.31 1004.47 1005.56 1006.56 1007.45 1008.23 1008.92 1009.54 1010.09 1010.61 1011.10 1011.59 1012.07 1012.55 1013.02 1013.46 1013.87 1014.23
991.94 992.37 992.80 993.21 993.56 993.84 994.05 994.19 994.25 994.27 994.24 994.20 994.17 994.16 994.22 994.36 994.60 994.96 995.45 996.08 996.85 997.74 998.74 999.81 1000.92 1002.05 1003.16 1004.22 1005.21 1006.12 1006.95 1007.69 1008.35 1008.96 1009.52 1010.05 1010.57 1011.08 1011.59 1012.09 1012.58 1013.04 1013.45 1013.82
991.48 991.78 992.07 992.33 992.55 992.72 992.86 992.95 993.02 993.08 993.15 993.23 993.35 993.53 993.77 994.10 994.52 995.05 995.67 996.41 997.24 998.15 999.13 1000.16 1001.20 1002.24 1003.25 1004.20 1005.10 1005.91 1006.66 1007.34 1007.95 1008.53 1009.08 1009.61 1010.13 1010.66 1011.19 1011.70 1012.21 1012.68 1013.11 1013.49
991.22 991.38 991.53 991.66 991.76 991.85 991.92 992.00 992.09 992.21 992.37 992.58 992.85 993.20 993.62 994.12 994.70 995.37 996.12 996.94 997.83 998.77 999.74 1000.73 1001.71 1002.67 1003.59 1004.44 1005.24 1005.96 1006.62 1007.22 1007.78 1008.31 1008.82 1009.33 1009.85 1010.37 1010.90 1011.42 1011.94 1012.42 1012.87 1013.27
991.11 991.16 991.20 991.22 991.24 991.27 991.32 991.40 991.53 991.72 991.97 992.30 992.71 993.20 993.77 994.41 995.13 995.91 996.76 997.65 998.59 999.55 1000.51 1001.47 1002.41 1003.30 1004.14 1004.91 1005.61 1006.25 1006.83 1007.36 1007.85 1008.32 1008.78 1009.25 1009.74 1010.24 1010.76 1011.28 1011.79 1012.29 1012.74 1013.16
991.14 991.11 991.08 991.05 991.03 991.04 991.10 991.21 991.40 991.66 992.01 992.44 992.97 993.57 994.24 994.99 995.80 996.66 997.57 998.51 999.47 1000.44 1001.39 1002.32 1003.22 1004.06 1004.83 1005.53 1006.17 1006.73 1007.23 1007.69 1008.11 1008.52 1008.93 1009.36 1009.81 1010.28 1010.77 1011.28 1011.79 1012.29 1012.75 1013.18
Thickness
5778 5784 5785 5783 5784 5785 5783 5787 5785 5792 5797 5803 5808 5807 5805 5805 5804 5802 5800 5800 5798 5797 5796 5795 5793 5791 5789 5787 5785 5782 5777 5773 5769 5766 5763 5759 5756 5752 5750 5747 5744 5740 5737 5733
5762 5773 5775 5774 5780 5782 5782 5785 5787 5790 5792 5808 5809 5806 5800 5799 5798 5795 5794 5795 5794 5793 5791 5789 5788 5786 5784 5782 5780 5777 5772 5768 5765 5762 5758 5755 5752 5748 5745 5742 5739 5735 5732 5728
5749 5763 5761 5757 5775 5778 5779 5785 5785 5780 5789 5798 5794 5792 5792 5794 5794 5791 5791 5791 5790 5789 5787 5786 5785 5783 5779 5777 5775 5770 5767 5763 5761 5757 5753 5750 5749 5745 5741 5737 5734 5730 5727 5724
5743 5741 5727 5765 5787 5784 5778 5782 5787 5787 5789 5790 5788 5788 5790 5791 5789 5788 5788 5787 5786 5786 5784 5784 5783 5780 5777 5773 5769 5765 5761 5758 5756 5752 5749 5746 5743 5739 5736 5734 5730 5726 5723 5720
5734 5731 5740 5760 5770 5773 5768 5769 5784 5781 5782 5782 5784 5780 5779 5784 5786 5785 5785 5785 5784 5784 5784 5781 5779 5775 5771 5767 5763 5759 5756 5753 5751 5747 5743 5740 5737 5734 5732 5728 5725 5722 5718 5715
5725 5719 5724 5749 5766 5773 5764 5754 5775 5776 5774 5775 5772 5763 5770 5778 5780 5781 5780 5780 5779 5779 5778 5774 5772 5770 5765 5761 5757 5754 5752 5749 5746 5743 5739 5736 5733 5730 5727 5723 5720 5717 5714 5710
5716 5717 5734 5750 5759 5758 5736 5745 5765 5769 5769 5768 5765 5767 5772 5775 5774 5774 5773 5772 5772 5771 5769 5767 5765 5762 5757 5755 5751 5750 5748 5745 5742 5738 5735 5732 5728 5724 5721 5718 5715 5711 5708 5705
5710 5708 5719 5742 5743 5739 5741 5753 5757 5759 5761 5760 5762 5762 5764 5764 5765 5765 5764 5764 5763 5761 5759 5759 5758 5754 5750 5747 5747 5745 5742 5739 5736 5733 5731 5728 5723 5719 5716 5713 5709 5705 5702 5700
5712 5715 5725 5733 5734 5739 5742 5741 5745 5748 5751 5752 5752 5753 5754 5754 5755 5756 5756 5755 5755 5753 5750 5749 5749 5747 5742 5741 5740 5738 5734 5731 5729 5727 5724 5721 5717 5713 5710 5707 5705 5702 5699 5695
5700 5709 5715 5720 5725 5728 5732 5732 5737 5740 5742 5743 5742 5744 5745 5745 5745 5745 5747 5747 5746 5744 5742 5740 5739 5739 5737 5735 5733 5730 5726 5724 5722 5719 5717 5714 5712 5710 5706 5703 5700 5698 5694 5691
5686 5696 5701 5706 5711 5715 5719 5723 5727 5730 5732 5733 5733 5734 5735 5735 5735 5735 5736 5737 5738 5736 5734 5732 5731 5730 5730 5728 5726 5723 5720 5719 5716 5715 5712 5708 5706 5702 5700 5697 5694 5689 5688 5685
5678 5687 5688 5693 5702 5706 5707 5710 5714 5717 5720 5723 5725 5725 5726 5727 5727 5727 5728 5728 5728 5727 5726 5725 5724 5722 5721 5721 5719 5716 5714 5712 5711 5710 5707 5704 5700 5695 5688 5687 5682 5679 5676 5674
5674 5679 5683 5687 5692 5696 5698 5701 5705 5708 5711 5712 5715 5717 5718 5718 5718 5719 5719 5719 5719 5718 5718 5717 5716 5714 5713 5713 5711 5708 5707 5706 5705 5704 5701 5699 5696 5691 5686 5679 5674 5671 5668 5665
5663 5666 5669 5675 5679 5685 5689 5693 5696 5699 5702 5705 5706 5708 5709 5708 5709 5709 5709 5711 5711 5711 5710 5710 5708 5707 5706 5705 5703 5701 5700 5699 5697 5696 5695 5693 5691 5687 5683 5679 5675 5670 5663 5657
5653 5657 5662 5668 5671 5675 5679 5682 5684 5688 5691 5694 5696 5697 5698 5698 5698 5700 5701 5703 5703 5702 5702 5701 5700 5698 5697 5697 5696 5694 5694 5693 5690 5689 5688 5687 5685 5682 5679 5675 5671 5666 5661 5655
5645 5650 5655 5658 5661 5665 5669 5671 5674 5677 5681 5684 5687 5688 5689 5690 5691 5692 5692 5693 5693 5693 5692 5692 5690 5690 5689 5689 5687 5686 5685 5681 5680 5681 5682 5680 5678 5675 5673 5669 5666 5662 5657 5653
5636 5641 5645 5648 5653 5657 5660 5664 5667 5669 5673 5676 5678 5679 5680 5680 5681 5682 5683 5685 5685 5684 5683 5682 5681 5681 5680 5679 5679 5680 5679 5676 5672 5673 5674 5672 5671 5668 5665 5662 5659 5656 5653 5648
5635 5639 5643 5645 5648 5650 5652 5655 5658 5661 5664 5667 5669 5670 5670 5671 5672 5672 5674 5675 5675 5674 5674 5674 5673 5673 5671 5671 5671 5672 5671 5669 5668 5667 5666 5663 5662 5660 5658 5655 5652 5649 5646 5642
5633 5636 5639 5641 5643 5644 5646 5647 5650 5653 5656 5658 5659 5660 5661 5662 5663 5664 5664 5664 5664 5664 5664 5665 5662 5663 5663 5663 5661 5663 5664 5662 5661 5660 5659 5654 5653 5653 5651 5648 5645 5643 5639 5636
5626 5630 5632 5635 5637 5638 5639 5640 5642 5645 5647 5649 5650 5651 5651 5653 5654 5655 5655 5655 5657 5659 5658 5656 5655 5656 5655 5655 5652 5656 5656 5656 5654 5653 5651 5649 5647 5646 5644 5641 5639 5636 5633 5630
5619 5623 5625 5627 5629 5631 5633 5634 5635 5637 5639 5641 5642 5642 5644 5645 5646 5646 5646 5647 5648 5648 5648 5645 5647 5648 5648 5647 5644 5649 5649 5648 5647 5646 5644 5642 5641 5639 5637 5634 5632 5629 5626 5623
5612 5615 5618 5620 5622 5623 5625 5628 5629 5631 5632 5633 5635 5636 5636 5637 5638 5638 5638 5639 5641 5637 5639 5641 5641 5639 5639 5637 5640 5642 5641 5641 5640 5639 5637 5635 5633 5631 5628 5626 5624 5622 5619 5616
5605 5608 5611 5613 5615 5617 5620 5622 5624 5625 5625 5626 5627 5628 5629 5630 5632 5631 5631 5632 5632 5628 5631 5633 5631 5628 5626 5630 5634 5634 5634 5633 5632 5630 5629 5628 5626 5623 5621 5618 5616 5614 5611 5608
5598 5601 5604 5607 5610 5612 5613 5617 5619 5619 5620 5620 5621 5622 5622 5623 5624 5626 5626 5623 5621 5620 5624 5623 5619 5618 5618 5625 5626 5626 5626 5625 5624 5623 5621 5619 5618 5616 5614 5611 5609 5607 5604 5601
5594 5597 5599 5601 5603 5606 5608 5610 5612 5613 5614 5615 5616 5615 5616 5617 5617 5618 5618 5617 5613 5612 5616 5613 5610 5609 5614 5618 5618 5619 5618 5618 5617 5616 5614 5612 5610 5609 5606 5603 5601 5599 5596 5594
5589 5592 5594 5595 5599 5601 5604 5606 5608 5608 5609 5609 5610 5611 5611 5611 5610 5610 5610 5609 5608 5605 5607 5608 5606 5604 5609 5612 5611 5611 5611 5609 5608 5607 5606 5605 5603 5601 5598 5596 5593 5591 5588 5586
5585 5587 5588 5591 5594 5596 5599 5601 5601 5602 5603 5603 5603 5604 5604 5604 5604 5603 5603 5603 5602 5601 5602 5602 5602 5602 5604 5604 5604 5603 5602 5602 5601 5600 5599 5597 5596 5594 5591 5588 5586 5583 5581 5578